Terminal Aerodrome Forecast
Issued by NWS San Angelo, TX

Home | Current Version | Previous Version | Text Only | Print | Product List | Glossary On
Versions: 1 2 3 4 5 6 7 8 9 10 11 12
425
FTUS44 KSJT 082326
TAFSJT
TAF
KSJT 082326Z 0900/0924 28004KT P6SM FEW250
     FM091800 25009KT P6SM SKC=

USA.gov is the U.S. government's official web portal to all federal, state and local government web resources and services.